Fairchild AFB, WA

6:56 AM PST on February 19, 2017 (GMT -0800)
Fairchild Air Force Base

Weather History for KSKA - August, 2013

Change the Weather History Date:

Wednesday, August 14, 2013

  Actual Average Record
Temperature  
Mean Temperature 75 °F -  
Max Temperature 91 °F 82 °F 96 °F (1998)
Min Temperature 59 °F 55 °F 50 °F (1999)
Cooling Degree Days 10    
Growing Degree Days 25 (Base 50)    
Moisture  
Dew Point 51 °F    
Average Humidity 41    
Maximum Humidity 83    
Minimum Humidity 21    
Precipitation  
Precipitation 0.00 in - - ()
Sea Level Pressure  
Sea Level Pressure 29.92 in    
Wind  
Wind Speed 8 mph (NE)    
Max Wind Speed 14 mph    
Max Gust Speed -    
Visibility 10 miles    
Events Rain    
Averages and records for this station are not official NWS values.
T = Trace of Precipitation, MM = Missing Value Source: NWS Daily Summary

Daily Weather History Graph

Daily Weather History Graph

Search for Another Location

Airport or City:

Trip Planner

Search our weather history database for the weather conditions in past years. The results will help you decide how hot, cold, wet, or windy it might be!

Date:

Astronomy

Aug. 14, 2013 Rise Set
Actual Time 5:45 AM PDT 8:04 PM PDT
Civil Twilight 5:11 AM PDT 8:37 PM PDT
Nautical Twilight 4:28 AM PDT 9:20 PM PDT
Astronomical Twilight 3:40 AM PDT 10:07 PM PDT
Moon 2:26 PM PDT (8/14) 11:53 PM PDT (8/14)
Length of Visible Light 15h 26m
Length of Day
14h 18m
First Quarter, 54% of the Moon is Illuminated
Aug 14
First Quarter
Aug 20
Full
Aug 28
Last Quarter
Sep 5
New
Sep 12
First Quarter

Hourly Weather History & Observations

Time (PDT) Temp. Heat Index Dew Point Humidity Pressure Visibility Wind Dir Wind Speed Gust Speed Precip Events Conditions
12:58 AM 67.3 °F - 49.6 °F 53% 29.96 in 10.0 mi North 3.5 mph - N/A   Clear
1:58 AM 67.3 °F - 47.5 °F 49% 29.96 in 10.0 mi NNE 2.3 mph - N/A   Clear
2:58 AM 63.1 °F - 48.4 °F 59% 29.97 in 10.0 mi NNE 5.8 mph - N/A   Clear
3:58 AM 62.2 °F - 52.9 °F 71% 29.97 in 10.0 mi NE 6.9 mph - N/A   Clear
4:58 AM 59.9 °F - 53.6 °F 80% 29.95 in 10.0 mi NE 6.9 mph - N/A   Clear
5:58 AM 59.0 °F - 54.0 °F 83% 29.96 in 10.0 mi NE 9.2 mph - N/A   Clear
6:58 AM 63.7 °F - 57.0 °F 79% 29.96 in 10.0 mi NE 12.7 mph - N/A   Clear
7:58 AM 67.8 °F - 57.2 °F 69% 29.97 in 10.0 mi NE 13.8 mph - N/A   Clear
8:58 AM 72.0 °F - 57.6 °F 60% 29.97 in 10.0 mi NE 10.4 mph - N/A   Clear
9:58 AM 74.3 °F - 57.2 °F 55% 29.97 in 10.0 mi NE 11.5 mph - N/A   Clear
10:58 AM 79.5 °F - 56.5 °F 45% 29.95 in 10.0 mi NNE 9.2 mph - N/A   Clear
11:58 AM 82.4 °F 81.7 °F 55.4 °F 39% 29.94 in 10.0 mi NNE 10.4 mph - N/A   Partly Cloudy
12:58 PM 86.5 °F - 52.0 °F 30% 29.93 in 10.0 mi NE 12.7 mph - N/A   Clear
1:34 PM 87.8 °F - 50.0 °F 27% 29.96 in 10.0 mi NNE 8.1 mph - N/A   Light Drizzle
1:35 PM 89.6 °F - 50.0 °F 26% 29.96 in 10.0 mi NE 8.1 mph - N/A   Clear
1:58 PM 88.5 °F - 50.0 °F 27% 29.91 in 10.0 mi NNE 10.4 mph - 0.00 in   Clear
2:45 PM 89.6 °F - 50.0 °F 26% 29.94 in 10.0 mi NE 9.2 mph - N/A   Light Drizzle
2:51 PM 89.6 °F - 50.0 °F 26% 29.94 in 10.0 mi NE 9.2 mph - N/A   Clear
2:58 PM 89.4 °F - 49.8 °F 26% 29.90 in 10.0 mi NNE 6.9 mph - 0.00 in   Clear
3:58 PM 88.9 °F - 47.1 °F 24% 29.88 in 10.0 mi NE 9.2 mph - N/A   Partly Cloudy
4:22 PM 89.6 °F - 46.4 °F 22% 29.91 in 10.0 mi NE 10.4 mph - N/A Rain Light Rain
4:31 PM 91.4 °F - 46.4 °F 21% 29.91 in 10.0 mi NNE 11.5 mph - N/A   Partly Cloudy
4:58 PM 90.3 °F - 45.5 °F 21% 29.86 in 10.0 mi NNE 11.5 mph - 0.00 in   Clear
5:58 PM 90.3 °F - 45.5 °F 21% 29.85 in 10.0 mi NE 10.4 mph - N/A   Partly Cloudy
6:58 PM 87.6 °F - 48.7 °F 26% 29.83 in 10.0 mi NE 10.4 mph - N/A   Clear
7:27 PM 86.0 °F - 50.0 °F 29% 29.88 in 10.0 mi NE 9.2 mph - N/A   Light Drizzle
7:31 PM 84.2 °F - 50.0 °F 30% 29.88 in 10.0 mi NE 8.1 mph - N/A   Clear
7:58 PM 81.9 °F - 51.4 °F 35% 29.85 in 10.0 mi NNE 4.6 mph - 0.00 in   Partly Cloudy
8:58 PM 79.7 °F - 51.3 °F 37% 29.85 in 10.0 mi North - - N/A   Scattered Clouds
9:58 PM 78.1 °F - 51.3 °F 39% 29.86 in 10.0 mi SW 6.9 mph - N/A   Partly Cloudy
10:58 PM 72.5 °F - 49.1 °F 44% 29.86 in 10.0 mi WSW 6.9 mph - N/A   Clear
11:58 PM 70.5 °F - 45.5 °F 41% 29.86 in 10.0 mi WSW 6.9 mph - N/A   Clear